Location: Aulus
(42.7909°N, 1.3399°E)
Time: 18:21:53
(UTC+00:00)

Cosmos 1805 - Pass Details

Date: 19 May 2025
Orbit: 448 x 452 km, 82.5° (Epoch: 22 June)

Event Time Altitude Azimuth Distance (km) Brightness Sun altitude
Rises 22:21:33 0° 346° (NNW) 2,463 8.0 -23.9°
Reaches altitude 10° 22:23:39 10° 342° (NNW) 1,585 6.7 -24.1°
Enters shadow 22:26:16 42° 309° (NW) 658 4.0 -24.3°
